カタログに戻る

NOAA 16 DEB

運用中SSO
NORAD 41214·DEBRIS·🇺🇸 United States

打ち上げ Sep 21, 2000 から Vandenberg Space Force Base

Loading…

次のパス (今後24時間)

TLE

最新Source: Space-Track

元期: Sep 14, 2026, 07:49 UTC

1 41214U 00055DT  26257.32624384  .00004753  00000-0  13008-2 0  9999
2 41214  98.8043  32.8764 0025869 174.0008 186.1498 14.47483907560034

AllMySatでNOAA 16 DEBをリアルタイム追跡

Download on the App Store